Location: San Antonio
(29.4240°N, 98.4930°W)
Time: 09:53:24
(UTC-05:00)

Courier 1B Rocket - All Passes

Search period start: 14 July 2024 00:00
Search period end: 24 July 2024 00:00
Orbit: 920 x 1201 km, 28.2° (Epoch: 13 July)

Date Brightness Start Highest point End Pass type
(mag) Time Alt. Az. Time Alt. Az. Time Alt. Az.
14 Jul - 00:39:26 10° W 00:45:00 30° SSW 00:50:21 10° SSE visible
14 Jul - 16:04:42 10° SSW 16:10:16 21° SSE 16:15:43 10° ESE daylight
14 Jul - 17:56:12 10° SW 18:03:34 50° SSE 18:10:31 10° E daylight
14 Jul - 19:49:41 10° W 19:57:09 79° S 20:04:04 10° E daylight
14 Jul - 21:43:40 10° W 21:50:47 75° S 21:57:22 10° ESE visible
14 Jul - 23:37:46 10° W 23:44:02 41° SSW 23:49:57 10° SE visible
15 Jul - 01:33:52 10° WSW 01:36:47 13° SSW 01:39:39 10° S night (unlit)
15 Jul - 15:05:05 10° S 15:09:05 15° SSE 15:13:02 10° ESE daylight
15 Jul - 16:55:09 10° SW 17:02:17 40° SSE 17:09:07 10° E daylight
15 Jul - 18:48:12 10° WSW 18:55:48 72° S 19:02:55 10° E daylight
15 Jul - 20:42:09 10° W 20:49:31 81° S 20:56:20 10° E daylight
15 Jul - 22:36:11 10° W 22:42:58 53° SSW 22:49:17 10° ESE visible
16 Jul - 00:31:06 10° WSW 00:35:52 21° SSW 00:40:27 10° SSE visible
16 Jul - 15:54:24 10° SSW 16:01:02 30° SSE 16:07:30 10° E daylight
16 Jul - 17:46:49 10° WSW 17:54:27 63° SSE 18:01:43 10° E daylight
16 Jul - 19:40:36 10° W 19:48:11 83° S 19:55:14 10° E daylight
16 Jul - 21:34:39 10° W 21:41:49 66° SSW 21:48:27 10° ESE visible
16 Jul - 23:29:04 10° W 23:34:54 30° SSW 23:40:27 10° SSE visible
17 Jul - 14:54:05 10° SSW 14:59:48 22° SSE 15:05:29 10° ESE daylight
17 Jul - 16:45:35 10° SW 16:53:07 52° SSE 17:00:23 10° E daylight
17 Jul - 18:39:05 10° W 18:46:48 80° S 18:54:03 10° E daylight
17 Jul - 20:33:06 10° W 20:40:33 76° S 20:47:27 10° ESE daylight
17 Jul - 22:27:18 10° W 22:33:53 41° SSW 22:40:03 10° SE visible
18 Jul - 00:23:30 10° WSW 00:26:41 14° SSW 00:29:46 10° S visible
18 Jul - 13:54:31 10° S 13:58:37 15° SSE 14:02:43 10° ESE daylight
18 Jul - 15:44:35 10° SW 15:51:48 41° SSE 15:58:54 10° E daylight
18 Jul - 17:37:35 10° WSW 17:45:23 73° S 17:52:49 10° E daylight
18 Jul - 19:31:33 10° W 19:39:12 82° S 19:46:22 10° E daylight
18 Jul - 21:25:39 10° W 21:32:46 54° SSW 21:39:23 10° ESE visible
18 Jul - 23:20:40 10° WSW 23:25:44 22° SSW 23:30:34 10° SSE visible
19 Jul - 14:43:53 10° SSW 14:50:32 31° SSE 14:57:11 10° E daylight
19 Jul - 16:36:14 10° WSW 16:43:59 64° SSE 16:51:31 10° E daylight
19 Jul - 18:30:00 10° W 18:37:47 83° S 18:45:10 10° E daylight
19 Jul - 20:24:04 10° W 20:31:32 66° SSW 20:38:29 10° ESE daylight
19 Jul - 22:18:33 10° W 22:24:44 31° SSW 22:30:33 10° SSE visible
20 Jul - 13:43:38 10° SSW 13:49:19 22° SSE 13:55:05 10° ESE daylight
20 Jul - 15:35:04 10° SW 15:42:36 53° SSE 15:50:06 10° E daylight
20 Jul - 17:28:29 10° W 17:36:20 80° S 17:43:55 10° E daylight
20 Jul - 19:22:29 10° W 19:30:12 76° S 19:37:27 10° ESE daylight
20 Jul - 21:16:43 10° W 21:23:39 42° SSW 21:30:07 10° SE visible
20 Jul - 23:12:57 10° WSW 23:16:30 14° SSW 23:19:57 10° S visible
21 Jul - 12:44:10 10° S 12:48:10 15° SSE 12:52:14 10° ESE daylight
21 Jul - 14:34:07 10° SW 14:41:16 42° SSE 14:48:31 10° E daylight
21 Jul - 16:27:03 10° WSW 16:34:53 74° S 16:42:34 10° E daylight
21 Jul - 18:20:56 10° W 18:28:47 82° S 18:36:15 10° E daylight
21 Jul - 20:15:03 10° W 20:22:26 55° SSW 20:29:22 10° ESE daylight
21 Jul - 22:10:06 10° WSW 22:15:30 22° SSW 22:20:39 10° SSE visible
22 Jul - 13:33:30 10° SSW 13:40:02 31° SSE 13:46:42 10° E daylight
22 Jul - 15:25:46 10° WSW 15:33:27 65° SSE 15:41:10 10° E daylight
22 Jul - 17:19:25 10° W 17:27:18 83° S 17:34:58 10° E daylight
22 Jul - 19:13:27 10° W 19:21:08 67° SSW 19:28:25 10° ESE daylight
22 Jul - 21:07:57 10° W 21:14:27 32° SSW 21:20:35 10° SSE visible
23 Jul - 12:33:21 10° SSW 12:38:51 22° SSE 12:44:32 10° ESE daylight
23 Jul - 14:24:40 10° SW 14:32:04 53° SSE 14:39:39 10° E daylight
23 Jul - 16:17:59 10° W 16:25:49 81° S 16:33:36 10° E daylight
23 Jul - 18:11:54 10° W 18:19:44 76° S 18:27:17 10° ESE daylight
23 Jul - 20:06:07 10° W 20:13:17 43° SSW 20:20:04 10° SE daylight
23 Jul - 22:02:17 10° WSW 22:06:14 15° SSW 22:10:04 10° S visible
